Content
SEND FEEDBACK

Daily
Averages
Monthly
Summary
United States of America

DE ARMANVILLE, ALABAMA


Home > North America > United States > Alabama
Elevation: 186 meters     Latitude: 33 35N     Longitude: 085 51W

WEATHER
 
SELECT A DAY
Number of Records: 203,811;   Date Range: 1/1/95 - 9/16/14
 
SHARE

PRINT THIS DATA

[ ← Previous Day ]
WEATHER ALMANAC - 13 FEBRUARY, 2013
[ Next Day → ]
[ °F ]   °C
Weather ElementAverageHighLow
Temperature7.7 °C9.4 °C (6:53 am)1.7 °C (10:53 pm)
Dewpoint4.8 °C9 °C (7:04 am)1.1 °C (8:53 pm)
Humidity82.7 %100 % (4:05 am)66 % (5:17 pm)
Barometer1012.2 hPa1017.6 hPa (9:53 pm)1007.5 hPa (3:53 am)
Wind Speed13.8 km/h27.8 km/h (8:53 am)
Wind Gust40.7 km/h (11:53 am)
Weather ElementAverage
Visibility13.5 km
Wind DirectionSSW (190.3 °)

Weather ElementTotal
Precipitation0.51 mm
Heating Degree Days12.8 (Base 18.3)
Averaged from 32 records on 13 February, 2013
WEATHER CONDITIONS BREAKOUT
WIND DIRECTION BREAKOUT
WEATHER BY HOUR - 13 FEBRUARY, 2013
[ °F ]   °C
Local TimeTemperatureDewpointHumidityBarometerVisibilityWind DirectionWind SpeedGust SpeedPrecipitationEventsConditions
1:53 AM7.8 °C7.2 °C96 %1008.5 hPa6.4 kmENE (60°)13 km/hOvercast
2:53 AM8.3 °C7.2 °C93 %1007.8 hPa11.3 kmNE (50°)16.7 km/hOvercast
3:53 AM8.3 °C7.2 °C93 %1007.5 hPa8 kmNE (40°)11.1 km/hOvercast
4:05 AM8 °C8 °C100 %1007.5 hPa3.2 kmNE (40°)9.3 km/hOvercast
4:33 AM8 °C8 °C100 %1007.5 hPa3.2 kmCalm0.25 mmOvercast
4:53 AM8.3 °C7.8 °C97 %1008.5 hPa3.2 kmCalm0.25 mmOvercast
6:53 AM9.4 °C8.9 °C97 %1008.8 hPa12.9 kmSW (230°)16.7 km/h31.5 km/hOvercast
7:04 AM9 °C9 °C100 %1009.8 hPa6.4 kmWSW (240°)25.9 km/h38.9 km/hOvercast
7:36 AM9 °C8 °C93 %1008.8 hPa16.1 kmWSW (250°)14.8 km/hOvercast
7:53 AM9.4 °C8.3 °C93 %1010.2 hPa16.1 kmWSW (250°)16.7 km/hOvercast
8:53 AM9.4 °C7.2 °C86 %1010.8 hPa16.1 kmWSW (250°)27.8 km/h35.2 km/hOvercast
9:20 AM9 °C6 °C82 %1011.2 hPa16.1 kmWSW (250°)27.8 km/h38.9 km/hOvercast
9:53 AM8.9 °C5.6 °C80 %1011.9 hPa16.1 kmWest (260°)24.1 km/hOvercast
10:53 AM8.9 °C5.6 °C80 %1011.9 hPa16.1 kmWest (270°)22.2 km/h33.3 km/hOvercast
11:53 AM8.9 °C4.4 °C74 %1011.5 hPa16.1 kmWest (260°)22.2 km/h40.7 km/hOvercast
12:53 PM8.9 °C4.4 °C74 %1011.9 hPa16.1 kmWSW (250°)25.9 km/hOvercast
1:53 PM8.9 °C4.4 °C74 %1011.9 hPa16.1 kmWest (260°)13 km/hOvercast
2:22 PM9 °C4 °C71 %1011.5 hPa16.1 kmWest (270°)14.8 km/hOvercast
2:53 PM9.4 °C3.9 °C69 %1012.2 hPa16.1 kmWSW (250°)20.4 km/h35.2 km/hOvercast
3:00 PM9 °C4 °C71 %1011.9 hPa16.1 kmWest (260°)24.1 km/h35.2 km/hOvercast
3:53 PM8.9 °C3.9 °C71 %1013.2 hPa16.1 kmNW (310°)18.5 km/h29.6 km/hOvercast
4:34 PM8 °C3 °C71 %1013.5 hPa16.1 kmNW (310°)13 km/h33.3 km/hOvercast
4:53 PM7.8 °C2.2 °C68 %1014.6 hPa16.1 kmWNW (300°)14.8 km/h27.8 km/hOvercast
5:17 PM8 °C2 °C66 %1014.2 hPa16.1 kmNW (310°)7.4 km/hOvercast
5:35 PM7 °C2 °C71 %1014.6 hPa16.1 kmWNW (300°)11.1 km/hOvercast
5:53 PM7.2 °C2.2 °C71 %1015.2 hPa16.1 kmWNW (290°)11.1 km/hOvercast
6:53 PM6.7 °C2.2 °C73 %1015.9 hPa16.1 kmVariable5.6 km/hOvercast
7:53 PM6.1 °C1.7 °C74 %1015.9 hPa16.1 kmWNW (300°)7.4 km/hScattered Clouds
8:53 PM3.3 °C1.1 °C86 %1016.9 hPa16.1 kmCalmClear
9:53 PM2.2 °C1.1 °C93 %1017.6 hPa14.5 kmCalmClear
10:53 PM1.7 °C1.1 °C96 %1017.6 hPa11.3 kmCalmMostly Cloudy
11:53 PM4.4 °C1.7 °C83 %1017.6 hPa16.1 kmSW (230°)5.6 km/hOvercast
Hourly data recorded from KANB, located 0 kilometers away from De Armanville, Alabama







STORIES FROM OUR PARTNERS